IZ4UFQ-10 Weather Reports


Display with metric or nautical units.
time (UTC)temp
F
wind
direction
speed
MPH
gust
MPH
rain 1hr
in
rain 24hr
in
rain mn
in
humidity
%
barometer
mb
20260507111907 70 322 0.0 0.0 0.00 0.03 0.00 43 1012.8
20260507111406 70 344 0.0 0.0 0.00 0.03 0.00 42 1012.8
20260507110906 70 8 0.0 0.0 0.00 0.03 0.00 44 1012.9
20260507110406 70 321 0.0 0.0 0.00 0.03 0.00 43 1012.9
20260507105906 69 9 0.0 0.0 0.00 0.03 0.00 43 1013.0
20260507105405 69 10 0.0 0.0 0.00 0.03 0.00 47 1013.0
20260507104905 69 51 0.0 0.0 0.00 0.03 0.00 49 1013.1
20260507104405 69 14 0.0 0.0 0.00 0.03 0.00 49 1013.2
20260507103904 69 359 0.0 0.0 0.00 0.03 0.00 51 1013.1
20260507103404 68 47 0.0 0.0 0.00 0.03 0.00 49 1013.1
20260507102904 69 49 0.0 0.0 0.00 0.03 0.00 50 1013.2
20260507102404 69 66 0.0 0.0 0.00 0.03 0.00 52 1013.2
20260507101903 68 87 0.0 0.0 0.00 0.03 0.00 51 1013.2
20260507101403 68 333 0.0 0.0 0.00 0.03 0.00 50 1013.3
20260507100903 68 359 0.0 0.0 0.00 0.03 0.00 50 1013.3
20260507100402 68 359 0.0 0.0 0.00 0.03 0.00 52 1013.3
20260507095902 68 32 0.0 0.0 0.00 0.03 0.00 51 1013.3
20260507095402 69 21 0.0 0.0 0.00 0.03 0.00 53 1013.3
20260507094902 69 52 0.0 0.0 0.00 0.03 0.00 51 1013.4
20260507094401 68 335 0.0 0.0 0.00 0.03 0.00 50 1013.4
20260507093901 68 14 0.0 0.0 0.00 0.03 0.00 50 1013.4
20260507093401 68 4 0.0 0.0 0.00 0.03 0.00 52 1013.4
20260507092900 68 4 0.0 0.0 0.00 0.03 0.00 51 1013.4
20260507092400 67 4 0.0 0.0 0.00 0.03 0.00 51 1013.5
20260507091900 67 8 0.0 0.0 0.00 0.03 0.00 53 1013.5
20260507091400 66 16 0.0 0.0 0.00 0.03 0.00 54 1013.5
20260507090859 66 10 0.0 0.0 0.00 0.03 0.00 54 1013.4
20260507090359 66 8 0.0 0.0 0.00 0.03 0.00 55 1013.4
20260507085859 66 18 0.0 0.0 0.00 0.03 0.00 54 1013.4
20260507085358 67 8 0.0 0.0 0.00 0.03 0.00 54 1013.4
20260507084858 66 354 0.0 0.0 0.00 0.03 0.00 55 1013.3
20260507084358 66 4 0.0 0.0 0.00 0.03 0.00 55 1013.3
20260507083858 66 12 0.0 0.0 0.00 0.03 0.00 55 1013.3
20260507083357 66 30 0.0 0.0 0.00 0.03 0.00 54 1013.3
20260507082857 66 31 0.0 0.0 0.00 0.03 0.00 56 1013.3
20260507082357 66 31 0.0 0.0 0.00 0.03 0.00 54 1013.3
20260507081856 66 8 0.0 0.0 0.00 0.03 0.00 54 1013.2
20260507081356 66 148 0.0 0.0 0.00 0.03 0.00 53 1013.1
20260507080856 66 150 0.0 0.0 0.00 0.03 0.00 53 1013.2
20260507080356 67 233 0.0 0.0 0.00 0.03 0.00 55 1013.1
20260507075855 66 226 0.0 0.0 0.00 0.09 0.00 55 1013.1
20260507075355 66 226 0.0 0.0 0.00 0.09 0.00 55 1013.1
20260507074855 66 226 0.0 0.0 0.00 0.09 0.00 55 1013.1
20260507074354 66 226 0.0 0.0 0.00 0.09 0.00 53 1013.0
20260507073854 66 232 0.0 0.0 0.00 0.09 0.00 54 1013.0
20260507073354 66 232 0.0 0.0 0.00 0.09 0.00 55 1013.0
20260507072854 65 232 0.0 0.0 0.00 0.09 0.00 55 1013.0
20260507072353 65 232 0.0 0.0 0.00 0.09 0.00 56 1013.0
20260507071853 64 232 0.0 0.0 0.00 0.09 0.00 56 1013.0
20260507071353 64 232 0.0 0.0 0.00 0.09 0.00 58 1013.0
20260507070852 63 232 0.0 0.0 0.00 0.09 0.00 58 1012.9
20260507070352 63 231 0.0 0.0 0.00 0.09 0.00 59 1012.8
20260507065852 63 230 0.0 0.0 0.00 0.13 0.00 58 1012.8
20260507065352 63 206 0.0 0.0 0.00 0.13 0.00 58 1012.8
20260507064851 63 226 0.0 0.0 0.00 0.13 0.00 60 1012.8
20260507064351 63 226 0.0 0.0 0.00 0.13 0.00 59 1012.7
20260507063851 63 220 0.0 0.0 0.00 0.13 0.00 60 1012.7
20260507063350 63 226 0.0 0.0 0.00 0.13 0.00 60 1012.7
20260507062850 62 226 0.0 0.0 0.00 0.13 0.00 61 1012.7
20260507062350 62 226 0.0 0.0 0.00 0.13 0.00 61 1012.6
20260507061850 62 218 0.0 0.0 0.00 0.13 0.00 62 1012.5
20260507061349 62 213 0.0 0.0 0.00 0.13 0.00 63 1012.6
20260507060849 61 222 0.0 0.0 0.00 0.13 0.00 65 1012.4
20260507060349 61 222 0.0 0.0 0.00 0.13 0.00 65 1012.4
20260507055848 60 222 0.0 0.0 0.00 0.30 0.00 66 1012.3
20260507055348 60 212 0.0 0.0 0.00 0.30 0.00 67 1012.3
20260507054848 59 214 0.0 0.0 0.00 0.30 0.00 67 1012.3
20260507054347 59 214 0.0 0.0 0.00 0.30 0.00 68 1012.3
20260507053847 59 212 0.0 0.0 0.00 0.30 0.00 69 1012.3
20260507053347 58 211 0.0 0.0 0.00 0.30 0.00 69 1012.2
20260507052847 58 218 0.0 0.0 0.00 0.30 0.00 70 1012.1
20260507052346 57 212 0.0 0.0 0.00 0.30 0.00 71 1012.1
20260507051846 57 210 0.0 0.0 0.00 0.30 0.00 72 1012.1
20260507051346 56 212 0.0 0.0 0.00 0.30 0.00 73 1012.1
20260507050845 56 205 0.0 0.0 0.00 0.30 0.00 74 1012.0
20260507050345 56 206 0.0 0.0 0.00 0.30 0.00 76 1012.0
20260507045845 55 230 0.0 0.0 0.00 0.42 0.00 77 1011.9
20260507045345 55 235 0.0 0.0 0.00 0.42 0.00 78 1011.8
20260507044844 55 241 0.0 0.0 0.00 0.42 0.00 79 1011.8
20260507044344 55 241 0.0 0.0 0.00 0.42 0.00 79 1011.7
20260507043844 55 241 0.0 0.0 0.00 0.42 0.00 79 1011.7
20260507043343 55 241 0.0 0.0 0.00 0.42 0.00 78 1011.6
20260507042843 54 241 0.0 0.0 0.00 0.42 0.00 78 1011.6
20260507042343 54 241 0.0 0.0 0.00 0.42 0.00 77 1011.6
20260507041843 54 241 0.0 0.0 0.00 0.42 0.00 77 1011.6
20260507041342 54 247 0.0 0.0 0.00 0.42 0.00 77 1011.6
20260507040842 54 246 0.0 0.0 0.00 0.42 0.00 77 1011.5
20260507040342 55 246 0.0 0.0 0.00 0.42 0.00 77 1011.5
20260507035841 55 247 0.0 0.0 0.00 0.69 0.00 77 1011.5
20260507035341 55 247 0.0 0.0 0.00 0.69 0.00 77 1011.4
20260507034841 55 247 0.0 0.0 0.00 0.69 0.00 77 1011.3
20260507034341 55 241 0.0 0.0 0.00 0.69 0.00 77 1011.3
20260507033840 55 239 0.0 0.0 0.00 0.69 0.00 76 1011.3
20260507033340 55 240 0.0 0.0 0.00 0.69 0.00 76 1011.3
20260507032840 55 224 0.0 0.0 0.00 0.69 0.00 76 1011.3
20260507032339 56 223 0.0 0.0 0.00 0.69 0.00 76 1011.3
20260507031839 56 233 0.0 0.0 0.00 0.69 0.00 75 1011.2
20260507031339 56 233 0.0 0.0 0.00 0.69 0.00 75 1011.2
20260507030839 56 233 0.0 0.0 0.00 0.69 0.00 75 1011.2
20260507030338 56 231 0.0 0.0 0.00 0.69 0.00 75 1011.2
20260507025838 56 233 0.0 0.0 0.00 0.76 0.00 74 1011.2
20260507025338 56 209 0.0 0.0 0.00 0.76 0.00 74 1011.2
20260507024837 56 209 0.0 0.0 0.00 0.76 0.00 74 1011.2
20260507024337 56 209 0.0 0.0 0.00 0.76 0.00 74 1011.1
20260507023837 56 220 0.0 0.0 0.00 0.76 0.00 74 1011.1
20260507023337 56 206 0.0 0.0 0.00 0.76 0.00 74 1011.1
20260507022836 56 165 0.0 0.0 0.00 0.76 0.00 74 1011.1
20260507022336 57 174 0.0 0.0 0.00 0.76 0.00 74 1011.1
20260507021836 57 186 0.0 0.0 0.00 0.76 0.00 73 1011.1
20260507021335 57 212 0.0 0.0 0.00 0.76 0.00 73 1011.1
20260507020835 57 213 0.0 0.0 0.00 0.76 0.00 73 1011.1
20260507020335 57 212 0.0 0.0 0.00 0.76 0.00 73 1011.2
20260507015835 57 212 0.0 0.0 0.00 0.85 0.00 73 1011.0
20260507015334 57 216 0.0 0.0 0.00 0.85 0.00 73 1011.0
20260507014834 57 207 0.0 0.0 0.00 0.85 0.00 74 1011.0
20260507014334 57 208 0.0 0.0 0.00 0.85 0.00 75 1010.9
20260507013833 56 213 0.0 0.0 0.00 0.85 0.00 76 1010.9
20260507013333 56 199 0.0 0.0 0.00 0.85 0.00 78 1010.9
20260507012833 56 211 0.0 0.0 0.00 0.85 0.00 78 1010.8
20260507012333 56 211 0.0 0.0 0.00 0.85 0.00 77 1010.8
20260507011832 56 211 0.0 0.0 0.00 0.85 0.00 76 1010.8
20260507011332 56 211 0.0 0.0 0.00 0.85 0.00 76 1010.8
20260507010832 57 211 0.0 0.0 0.00 0.85 0.00 75 1010.8
20260507010331 57 211 0.0 0.0 0.00 0.85 0.00 74 1010.8
20260507005831 58 211 0.0 0.0 0.00 1.09 0.00 73 1010.8
20260507005331 58 211 0.0 0.0 0.00 1.09 0.00 72 1010.9
20260507004831 58 211 0.0 0.0 0.00 1.09 0.00 71 1010.9
20260507004330 59 211 0.0 0.0 0.00 1.09 0.00 70 1010.9
20260507003830 59 211 0.0 0.0 0.00 1.09 0.00 70 1010.9
20260507003330 59 211 0.0 0.0 0.00 1.09 0.00 70 1011.0
20260507002829 59 211 0.0 0.0 0.00 1.09 0.00 69 1010.9
20260507002329 59 212 0.0 0.0 0.00 1.09 0.00 69 1010.7
20260507001829 59 211 0.0 0.0 0.00 1.09 0.00 69 1010.8
20260507001329 59 212 0.0 0.0 0.00 1.09 0.00 69 1010.9
20260507000828 59 206 0.0 0.0 0.00 1.09 0.00 69 1010.9
20260507000328 59 209 0.0 0.0 0.00 1.09 0.00 69 1010.9
20260506235828 58 204 0.0 0.0 0.00 1.22 0.00 70 1010.9
20260506235327 58 211 0.0 0.0 0.00 1.22 0.00 70 1010.9
20260506234827 58 211 0.0 0.0 0.00 1.22 0.00 71 1010.9
20260506234327 58 211 0.0 0.0 0.00 1.22 0.00 70 1010.8
20260506233826 58 210 0.0 0.0 0.00 1.22 0.00 70 1010.9
20260506233326 59 210 0.0 0.0 0.00 1.22 0.00 69 1010.9
20260506232826 58 210 0.0 0.0 0.00 1.22 0.00 69 1011.0
20260506232326 58 210 0.0 0.0 0.00 1.22 0.00 69 1011.0
20260506231825 58 210 0.0 0.0 0.00 1.22 0.00 69 1011.0
20260506231325 59 211 0.0 0.0 0.00 1.22 0.00 69 1011.0
20260506230825 59 211 0.0 0.0 0.00 1.22 0.00 67 1011.1
20260506230325 59 210 0.0 0.0 0.00 1.22 0.00 67 1011.1
20260506225824 59 209 0.0 0.0 0.00 1.23 0.00 67 1011.1
20260506225324 59 210 0.0 0.0 0.00 1.23 0.00 67 1011.1
20260506224824 59 214 0.0 0.0 0.00 1.23 0.00 67 1011.1
20260506224323 59 216 0.0 0.0 0.00 1.23 0.00 68 1011.0
20260506223823 59 239 0.0 0.0 0.00 1.23 0.00 67 1011.0
20260506223323 59 240 0.0 0.0 0.00 1.23 0.00 67 1011.0
20260506222822 60 240 0.0 0.0 0.00 1.23 0.00 66 1011.0
20260506222322 60 243 0.0 0.0 0.00 1.23 0.00 66 1010.9
20260506221822 60 189 0.0 0.0 0.00 1.23 0.00 65 1010.8
20260506221322 61 189 0.0 0.0 0.00 1.23 0.00 64 1010.8
20260506220821 61 188 0.0 0.0 0.00 1.23 0.00 63 1010.8
20260506220321 61 188 0.0 0.0 0.00 1.23 0.00 63 1010.7
20260506215821 61 187 0.0 0.0 0.00 1.23 0.00 63 1010.8
20260506215320 61 189 0.0 0.0 0.00 1.23 1.23 63 1010.7
20260506214820 60 184 0.0 0.0 0.00 1.23 1.23 64 1010.7
20260506214320 61 184 0.0 0.0 0.00 1.23 1.23 64 1010.6
20260506213820 61 183 0.0 0.0 0.00 1.23 1.23 63 1010.6
20260506213319 61 183 0.0 0.0 0.00 1.23 1.23 63 1010.6
20260506212819 60 185 0.0 0.0 0.00 1.23 1.23 64 1010.6
20260506212319 60 185 0.0 0.0 0.00 1.23 1.23 65 1010.6
20260506211818 60 189 0.0 0.0 0.00 1.23 1.23 66 1010.5
20260506211318 60 189 0.0 0.0 0.00 1.23 1.23 67 1010.6
20260506210818 60 189 0.0 0.0 0.00 1.23 1.23 66 1010.6
20260506210318 60 189 0.0 0.0 0.00 1.23 1.23 65 1010.6
20260506205817 61 189 0.0 0.0 0.00 1.23 1.23 64 1010.6
20260506205317 61 189 0.0 0.0 0.00 1.23 1.23 62 1010.5
20260506204817 61 189 0.0 0.0 0.00 1.23 1.23 61 1010.5
20260506204316 62 189 0.0 0.0 0.00 1.23 1.23 60 1010.4
20260506203816 62 189 0.0 0.0 0.00 1.23 1.23 59 1010.4
20260506203316 62 189 0.0 0.0 0.00 1.23 1.23 59 1010.4
20260506202816 62 189 0.0 0.0 0.00 1.23 1.23 59 1010.4
20260506202315 62 187 0.0 0.0 0.00 1.23 1.23 58 1010.3
20260506201815 62 187 0.0 0.0 0.00 1.23 1.23 58 1010.3
20260506201315 62 187 0.0 0.0 0.00 1.23 1.23 57 1010.3
20260506200814 62 187 0.0 0.0 0.00 1.23 1.23 57 1010.2
20260506200314 62 187 0.0 0.0 0.00 1.23 1.23 57 1010.0
20260506195814 63 187 0.0 0.0 0.00 1.23 1.23 56 1010.0
20260506195314 63 175 0.0 0.0 0.00 1.23 1.23 56 1009.9
20260506194813 63 214 0.0 0.0 0.00 1.23 1.23 56 1009.8
20260506194313 63 197 0.0 0.0 0.00 1.23 1.23 55 1009.8
20260506193813 63 232 0.0 0.0 0.00 1.23 1.23 55 1009.7
20260506193312 63 179 0.0 0.0 0.00 1.23 1.23 55 1009.6
20260506192812 63 179 0.0 0.0 0.00 1.23 1.23 54 1009.5
20260506192312 63 174 0.0 0.0 0.00 1.23 1.23 54 1009.4
20260506191812 63 190 0.0 0.0 0.00 1.23 1.23 53 1009.3
20260506191311 64 174 0.0 0.0 0.00 1.23 1.23 53 1009.2
20260506190811 64 182 0.0 0.0 0.00 1.23 1.23 52 1009.1
20260506190311 64 180 0.0 0.0 0.00 1.23 1.23 53 1009.2
20260506185810 64 191 0.0 0.0 0.00 1.23 1.23 52 1009.1
20260506185310 64 206 0.0 0.0 0.00 1.23 1.23 53 1009.1
20260506184810 64 188 0.0 0.0 0.00 1.23 1.23 53 1009.1
20260506184309 64 176 0.0 0.0 0.00 1.23 1.23 54 1009.0
20260506183809 64 166 0.0 0.0 0.00 1.23 1.23 54 1009.0
20260506183309 64 187 0.0 0.0 0.00 1.23 1.23 55 1008.9
20260506182809 64 184 0.0 0.0 0.00 1.23 1.23 55 1008.8
20260506182308 64 176 0.0 0.0 0.00 1.23 1.23 56 1008.9
20260506181808 64 180 0.0 0.0 0.00 1.23 1.23 58 1008.8
20260506181308 64 164 0.0 0.0 0.00 1.23 1.23 58 1008.7
20260506180808 64 187 0.0 0.0 0.00 1.23 1.23 59 1008.7
20260506180307 64 181 0.0 0.0 0.00 1.23 1.23 59 1008.7
20260506175807 64 180 0.0 0.0 0.00 1.23 1.23 61 1008.6
20260506175307 64 173 0.0 0.0 0.00 1.23 1.23 63 1008.6
20260506174806 64 179 0.0 0.0 0.00 1.23 1.23 65 1008.7
20260506174306 64 179 0.0 0.0 0.00 1.23 1.23 65 1008.7
20260506173806 65 179 0.0 0.0 0.00 1.23 1.23 65 1008.6
20260506173305 65 179 0.0 0.0 0.00 1.23 1.23 65 1008.5
20260506172805 65 179 0.0 0.0 0.00 1.23 1.23 65 1008.5
20260506172307 65 179 0.0 0.0 0.00 1.23 1.23 65 1008.3
20260506171805 65 179 0.0 0.0 0.00 1.23 1.23 64 1008.3
20260506171304 65 179 0.0 0.0 0.00 1.23 1.23 64 1008.3
20260506170804 65 186 0.0 0.0 0.00 1.23 1.23 65 1008.2
20260506170304 65 186 0.0 0.0 0.00 1.23 1.23 65 1008.2
20260506165803 65 173 0.0 0.0 0.00 1.23 1.23 66 1008.2
20260506165305 66 173 0.0 0.0 0.00 1.23 1.23 67 1008.2
20260506164803 66 110 0.0 0.0 0.00 1.23 1.23 69 1008.2
20260506164303 66 169 0.0 0.0 0.00 1.23 1.23 68 1008.2
20260506163802 66 169 0.0 0.0 0.00 1.23 1.23 68 1008.1
20260506163302 66 169 0.0 0.0 0.00 1.23 1.23 68 1008.1
20260506162802 66 170 0.0 0.0 0.00 1.23 1.23 68 1008.2
20260506162301 66 169 0.0 0.0 0.00 1.23 1.23 69 1008.2
20260506161801 66 168 0.0 0.0 0.00 1.23 1.23 70 1008.1
20260506161301 66 177 0.0 0.0 0.00 1.23 1.23 72 1008.1
20260506160801 66 177 0.0 0.0 0.00 1.23 1.23 73 1008.1
20260506160300 66 179 0.0 0.0 0.00 1.23 1.23 73 1008.0
20260506155800 66 180 0.0 0.0 0.00 1.23 1.23 73 1008.0
20260506155300 66 187 0.0 0.0 0.00 1.23 1.23 72 1007.9
20260506154759 66 187 0.0 0.0 0.00 1.23 1.23 72 1007.9
20260506154259 66 187 0.0 0.0 0.00 1.23 1.23 72 1007.9
20260506153759 66 187 0.0 0.0 0.00 1.23 1.23 72 1007.8
20260506153259 66 187 0.0 0.0 0.00 1.23 1.23 71 1007.9
20260506152758 66 190 0.0 0.0 0.00 1.23 1.23 72 1008.0
20260506152258 66 218 0.0 0.0 0.00 1.23 1.23 72 1008.0
20260506151758 66 220 0.0 0.0 0.00 1.23 1.23 73 1008.1
20260506151257 66 228 0.0 0.0 0.00 1.23 1.23 73 1008.1
20260506150757 67 153 0.0 0.0 0.00 1.23 1.23 74 1008.0
20260506150303 67 153 0.0 0.0 0.00 1.23 1.23 74 1008.0
20260506145757 67 152 0.0 0.0 0.00 1.23 1.23 73 1007.9
20260506145256 67 164 0.0 0.0 0.00 1.23 1.23 73 1008.1
20260506144756 66 164 0.0 0.0 0.00 1.23 1.23 74 1008.2
20260506144256 66 164 0.0 0.0 0.00 1.23 1.23 75 1008.3
20260506143755 66 164 0.0 0.0 0.00 1.23 1.23 76 1008.2
20260506143255 66 164 0.0 0.0 0.00 1.23 1.23 77 1008.2
20260506142755 66 164 0.0 0.0 0.00 1.23 1.23 77 1008.1
20260506142255 66 165 0.0 0.0 0.00 1.23 1.23 78 1008.2
20260506141754 65 153 0.0 0.0 0.00 1.23 1.23 78 1008.1
20260506141254 65 177 0.0 0.0 0.00 1.23 1.23 78 1008.1
20260506140754 65 191 0.0 0.0 0.00 1.23 1.23 78 1008.2
20260506140253 65 194 0.0 0.0 0.00 1.23 1.23 79 1008.2
20260506135753 65 215 0.0 0.0 0.00 1.23 1.23 81 1008.4
20260506135253 65 186 0.0 0.0 0.00 1.23 1.23 82 1008.5
20260506134753 64 200 0.0 0.0 0.00 1.23 1.23 83 1008.5
20260506134252 64 173 0.0 0.0 0.00 1.23 1.23 83 1008.6
20260506133752 64 171 0.0 0.0 0.00 1.23 1.23 83 1008.7
20260506133252 64 170 0.0 0.0 0.00 1.23 1.23 84 1008.8
20260506132751 64 176 0.0 0.0 0.00 1.23 1.23 84 1009.0
20260506132251 64 175 0.0 0.0 0.00 1.23 1.23 84 1009.0
20260506131751 64 174 0.0 0.0 0.00 1.23 1.23 83 1008.9
20260506131251 64 175 0.0 0.0 0.01 1.23 1.23 83 1009.0
20260506130750 64 200 0.0 0.0 0.02 1.23 1.23 84 1009.2
20260506130250 64 211 0.0 0.0 0.03 1.23 1.23 84 1009.3
20260506125750 63 208 0.0 0.0 0.03 1.23 1.23 84 1009.3
20260506125249 63 199 0.0 0.0 0.03 1.23 1.23 85 1009.3
20260506124749 63 181 0.0 0.0 0.03 1.23 1.23 85 1009.3
20260506124249 63 217 0.0 0.0 0.03 1.23 1.23 85 1009.3
20260506123749 63 206 0.0 0.0 0.03 1.23 1.23 85 1009.3
20260506123248 64 160 0.0 0.0 0.03 1.23 1.23 85 1009.3
20260506122748 64 174 0.0 0.0 0.03 1.23 1.23 85 1009.2
20260506122248 65 359 0.0 0.0 0.03 1.23 1.23 85 1009.0
20260506121747 65 359 0.0 0.0 0.03 1.23 1.23 84 1008.9
20260506121247 66 359 0.0 0.0 0.02 1.22 1.22 84 1009.0
20260506120747 67 241 0.0 0.0 0.01 1.21 1.21 82 1009.2
20260506120246 67 238 0.0 0.0 0.00 1.20 1.20 80 1009.2
20260506115746 67 256 0.0 0.0 0.00 1.21 1.20 75 1009.0
20260506115246 68 272 0.0 0.0 0.00 1.21 1.20 74 1009.1
20260506114746 68 238 0.0 0.0 0.00 1.21 1.20 74 1008.8
20260506114245 68 213 0.0 0.0 0.00 1.21 1.20 72 1008.8
20260506113745 68 130 0.0 0.0 0.00 1.21 1.20 72 1008.7
20260506113245 68 174 0.0 0.0 0.00 1.21 1.20 72 1008.8
20260506112744 68 168 0.0 0.0 0.00 1.21 1.20 71 1008.7
20260506112244 68 172 0.0 0.0 0.00 1.21 1.20 70 1008.8